Retour au catalogue

STARLINK-31013

ActifCommunicationsVLEO
NORAD 58526·PAYLOAD·🇺🇸 United States

Lancé Dec 7, 2023 depuis Cape Canaveral Space Force Station

Loading…

Prochains Passages (prochaines 24 heures)

TLE

FraisSource: CelesTrak SupGP

Époque: Sep 15, 2026, 01:46 UTC

1 58526C 23191U   26258.07409722  .00045055  00000+0  24983-2 0  2580
2 58526  42.9979 144.8288 0010926 188.7012 120.0488 15.12936833    13

Suivez STARLINK-31013 en temps réel avec AllMySat

Download on the App Store